Location: Newark
(53.3333°N, 83.7500°E)
Time: 19:10:08
(UTC+00:00)

Vanguard 2 - Pass Details

Date: 18 November 2019
Orbit: 553 x 2938 km, 32.9° (Epoch: 09 December)

Event Time Altitude Azimuth Distance (km) Brightness Sun altitude
Rises 04:11:24 0° 226° (SW) 4,541 11.7 13.1°
Reaches altitude 10° 04:18:42 10° 186° (S) 2,802 11.6 13.6°
Maximum altitude 04:19:08 10° 182° (S) 2,752 11.7 13.7°
Drops below altitude 10° 04:19:35 10° 178° (S) 2,713 11.8 13.7°
Sets 04:24:55 0° 132° (SE) 3,149 12.0 14.0°
